Time,TemperatureF,DewpointF,PressureIn,WindDirection,WindDirectionDegrees,WindSpeedMPH,WindSpeedGustMPH,Humidity,HourlyPrecipIn,Conditions,Clouds,dailyrainin,SoftwareType,DateUTC
2013-02-04 00:08:00,8.0,5.0,29.53,SSW,213,0.0,0.0,86,0.00,,,0.00,weatherlink.com 1.10,2013-02-04 09:08:00,
2013-02-04 00:23:00,8.1,5.0,29.54,SSW,213,0.0,0.0,87,0.00,,,0.00,weatherlink.com 1.10,2013-02-04 09:23:00,
2013-02-04 00:39:00,8.1,5.0,29.54,SSW,213,0.0,0.0,87,0.00,,,0.00,weatherlink.com 1.10,2013-02-04 09:39:00,
2013-02-04 00:54:00,8.1,5.0,29.55,SSW,213,0.0,0.0,87,0.00,,,0.00,weatherlink.com 1.10,2013-02-04 09:54:00,
2013-02-04 01:09:00,8.2,5.0,29.55,SSW,213,0.0,0.0,86,0.00,,,0.00,weatherlink.com 1.10,2013-02-04 10:09:00,
2013-02-04 01:24:00,8.1,5.0,29.56,SSW,213,0.0,0.0,87,0.00,,,0.00,weatherlink.com 1.10,2013-02-04 10:24:00,
2013-02-04 01:39:00,8.1,5.0,29.56,SSW,213,0.0,0.0,86,0.00,,,0.00,weatherlink.com 1.10,2013-02-04 10:39:00,
2013-02-04 01:54:00,8.2,5.0,29.57,SSW,213,0.0,0.0,87,0.00,,,0.00,weatherlink.com 1.10,2013-02-04 10:54:00,
2013-02-04 02:09:00,8.2,5.0,29.57,SW,226,0.0,0.0,87,0.00,,,0.00,weatherlink.com 1.10,2013-02-04 11:09:00,
2013-02-04 02:24:00,8.3,5.0,29.57,SW,228,0.0,0.0,86,0.00,,,0.00,weatherlink.com 1.10,2013-02-04 11:24:00,
2013-02-04 02:39:00,8.0,5.0,29.57,SW,227,0.0,0.0,86,0.00,,,0.00,weatherlink.com 1.10,2013-02-04 11:39:00,
2013-02-04 02:54:00,8.0,5.0,29.58,SW,227,0.0,0.0,87,0.00,,,0.00,weatherlink.com 1.10,2013-02-04 11:54:00,
2013-02-04 03:09:00,7.8,5.0,29.58,SW,227,0.0,0.0,86,0.00,,,0.00,weatherlink.com 1.10,2013-02-04 12:09:00,
2013-02-04 03:39:00,8.0,5.0,29.59,SW,227,0.0,0.0,87,0.00,,,0.00,weatherlink.com 1.10,2013-02-04 12:39:00,
2013-02-04 03:54:00,8.1,5.0,29.59,SW,227,0.0,0.0,87,0.00,,,0.00,weatherlink.com 1.10,2013-02-04 12:54:00,
2013-02-04 04:09:00,8.3,5.0,29.59,SW,227,0.0,0.0,87,0.00,,,0.00,weatherlink.com 1.10,2013-02-04 13:09:00,
2013-02-04 04:24:00,8.0,5.0,29.59,SW,228,0.0,0.0,87,0.00,,,0.00,weatherlink.com 1.10,2013-02-04 13:24:00,
2013-02-04 04:39:00,8.1,5.0,29.60,SW,228,0.0,0.0,87,0.00,,,0.00,weatherlink.com 1.10,2013-02-04 13:39:00,
2013-02-04 04:54:00,8.0,5.0,29.60,SW,228,0.0,0.0,87,0.00,,,0.00,weatherlink.com 1.10,2013-02-04 13:54:00,
2013-02-04 05:09:00,8.1,5.0,29.61,SW,228,0.0,0.0,87,0.00,,,0.00,weatherlink.com 1.10,2013-02-04 14:09:00,
2013-02-04 05:39:00,8.3,5.0,29.61,SW,228,0.0,0.0,87,0.00,,,0.00,weatherlink.com 1.10,2013-02-04 14:39:00,
2013-02-04 05:54:00,8.5,5.0,29.61,SW,227,0.0,0.0,87,0.00,,,0.00,weatherlink.com 1.10,2013-02-04 14:54:00,
2013-02-04 06:09:00,8.6,6.0,29.62,SW,228,0.0,0.0,87,0.00,,,0.00,weatherlink.com 1.10,2013-02-04 15:09:00,
2013-02-04 06:24:00,8.7,6.0,29.61,SW,228,0.0,0.0,87,0.00,,,0.00,weatherlink.com 1.10,2013-02-04 15:24:00,
2013-02-04 06:39:00,8.6,6.0,29.62,SW,228,0.0,0.0,87,0.00,,,0.00,weatherlink.com 1.10,2013-02-04 15:39:00,
2013-02-04 06:54:00,8.5,5.0,29.62,SW,228,0.0,0.0,87,0.00,,,0.00,weatherlink.com 1.10,2013-02-04 15:54:00,
2013-02-04 07:09:00,8.5,5.0,29.62,SW,228,0.0,0.0,87,0.00,,,0.00,weatherlink.com 1.10,2013-02-04 16:09:00,
2013-02-04 07:24:00,8.6,6.0,29.62,SW,228,0.0,0.0,87,0.00,,,0.00,weatherlink.com 1.10,2013-02-04 16:24:00,
2013-02-04 07:39:00,8.9,6.0,29.63,SW,228,0.0,0.0,87,0.00,,,0.00,weatherlink.com 1.10,2013-02-04 16:39:00,
2013-02-04 07:54:00,9.1,6.0,29.63,SW,227,0.0,0.0,87,0.00,,,0.00,weatherlink.com 1.10,2013-02-04 16:54:00,
2013-02-04 08:09:00,9.1,6.0,29.63,SW,228,0.0,0.0,87,0.00,,,0.00,weatherlink.com 1.10,2013-02-04 17:09:00,
2013-02-04 08:24:00,9.2,6.0,29.64,SW,227,0.0,0.0,87,0.00,,,0.00,weatherlink.com 1.10,2013-02-04 17:24:00,
2013-02-04 08:39:00,9.1,6.0,29.65,SW,228,0.0,0.0,87,0.00,,,0.00,weatherlink.com 1.10,2013-02-04 17:39:00,
2013-02-04 08:54:00,9.2,6.0,29.65,SW,228,0.0,0.0,87,0.00,,,0.00,weatherlink.com 1.10,2013-02-04 17:54:00,
2013-02-04 09:09:00,9.2,6.0,29.66,SW,228,0.0,0.0,87,0.00,,,0.00,weatherlink.com 1.10,2013-02-04 18:09:00,
2013-02-04 09:24:00,9.3,6.0,29.66,SW,228,0.0,0.0,87,0.00,,,0.00,weatherlink.com 1.10,2013-02-04 18:24:00,
2013-02-04 09:39:00,9.4,6.0,29.66,SW,228,0.0,0.0,87,0.00,,,0.00,weatherlink.com 1.10,2013-02-04 18:39:00,
2013-02-04 09:54:00,9.6,7.0,29.67,SW,228,0.0,0.0,87,0.00,,,0.00,weatherlink.com 1.10,2013-02-04 18:54:00,
2013-02-04 10:09:00,9.9,7.0,29.67,SW,228,0.0,0.0,87,0.00,,,0.00,weatherlink.com 1.10,2013-02-04 19:09:00,
2013-02-04 10:24:00,10.2,7.0,29.67,South,190,0.0,0.0,87,0.00,,,0.00,weatherlink.com 1.10,2013-02-04 19:24:00,
2013-02-04 10:39:00,10.7,7.0,29.67,South,190,0.0,0.0,86,0.00,,,0.00,weatherlink.com 1.10,2013-02-04 19:39:00,
2013-02-04 10:55:00,11.0,8.0,29.68,South,190,0.0,0.0,87,0.00,,,0.00,weatherlink.com 1.10,2013-02-04 19:55:00,
2013-02-04 11:10:00,11.0,8.0,29.68,South,190,0.0,0.0,87,0.00,,,0.00,weatherlink.com 1.10,2013-02-04 20:10:00,
2013-02-04 11:25:00,11.1,8.0,29.69,South,190,0.0,0.0,87,0.00,,,0.00,weatherlink.com 1.10,2013-02-04 20:25:00,
2013-02-04 11:40:00,11.5,9.0,29.69,West,277,0.0,1.0,88,0.00,,,0.00,weatherlink.com 1.10,2013-02-04 20:40:00,
2013-02-04 11:55:00,11.7,9.0,29.69,West,276,0.0,0.0,87,0.00,,,0.00,weatherlink.com 1.10,2013-02-04 20:55:00,
2013-02-04 12:10:00,12.2,9.0,29.70,West,276,0.0,0.0,88,0.00,,,0.00,weatherlink.com 1.10,2013-02-04 21:10:00,
2013-02-04 12:25:00,12.5,9.0,29.70,West,276,0.0,0.0,87,0.00,,,0.00,weatherlink.com 1.10,2013-02-04 21:25:00,
2013-02-04 12:40:00,13.2,10.0,29.70,West,276,0.0,0.0,87,0.00,,,0.00,weatherlink.com 1.10,2013-02-04 21:40:00,
2013-02-04 12:55:00,13.4,10.0,29.69,SW,230,0.0,0.0,87,0.00,,,0.00,weatherlink.com 1.10,2013-02-04 21:55:00,
2013-02-04 13:10:00,13.2,10.0,29.70,West,266,0.0,0.0,87,0.00,,,0.00,weatherlink.com 1.10,2013-02-04 22:10:00,
2013-02-04 13:25:00,13.6,10.0,29.70,West,265,0.0,0.0,86,0.00,,,0.00,weatherlink.com 1.10,2013-02-04 22:25:00,
2013-02-04 13:40:00,13.7,10.0,29.70,West,264,0.0,0.0,86,0.00,,,0.00,weatherlink.com 1.10,2013-02-04 22:40:00,
2013-02-04 13:55:00,14.1,11.0,29.70,West,264,0.0,0.0,87,0.00,,,0.00,weatherlink.com 1.10,2013-02-04 22:55:00,
2013-02-04 14:10:00,14.0,11.0,29.70,West,265,0.0,0.0,87,0.00,,,0.00,weatherlink.com 1.10,2013-02-04 23:10:00,
2013-02-04 14:25:00,14.3,11.0,29.70,West,264,0.0,0.0,87,0.00,,,0.00,weatherlink.com 1.10,2013-02-04 23:25:00,
2013-02-04 14:40:00,14.0,11.0,29.71,West,265,0.0,0.0,87,0.00,,,0.00,weatherlink.com 1.10,2013-02-04 23:40:00,
2013-02-04 14:55:00,14.3,11.0,29.71,West,265,0.0,0.0,87,0.00,,,0.00,weatherlink.com 1.10,2013-02-04 23:55:00,
2013-02-04 15:10:00,14.0,11.0,29.71,West,265,0.0,0.0,87,0.00,,,0.00,weatherlink.com 1.10,2013-02-05 00:10:00,
2013-02-04 15:25:00,13.9,11.0,29.71,West,265,0.0,0.0,87,0.00,,,0.00,weatherlink.com 1.10,2013-02-05 00:25:00,
2013-02-04 15:40:00,13.7,11.0,29.71,West,265,0.0,0.0,87,0.00,,,0.00,weatherlink.com 1.10,2013-02-05 00:40:00,
2013-02-04 15:55:00,13.7,11.0,29.71,West,265,0.0,0.0,87,0.00,,,0.00,weatherlink.com 1.10,2013-02-05 00:55:00,
2013-02-04 16:10:00,13.7,11.0,29.71,West,265,0.0,0.0,87,0.00,,,0.00,weatherlink.com 1.10,2013-02-05 01:10:00,
2013-02-04 16:25:00,13.9,11.0,29.70,West,265,0.0,0.0,88,0.00,,,0.00,weatherlink.com 1.10,2013-02-05 01:25:00,
2013-02-04 16:40:00,13.9,11.0,29.71,West,265,0.0,0.0,88,0.00,,,0.00,weatherlink.com 1.10,2013-02-05 01:40:00,
2013-02-04 16:55:00,13.8,11.0,29.70,West,265,0.0,0.0,88,0.00,,,0.00,weatherlink.com 1.10,2013-02-05 01:55:00,
2013-02-04 17:10:00,13.6,11.0,29.70,West,265,0.0,0.0,89,0.00,,,0.00,weatherlink.com 1.10,2013-02-05 02:10:00,
2013-02-04 17:25:00,13.6,11.0,29.71,West,265,0.0,0.0,88,0.00,,,0.00,weatherlink.com 1.10,2013-02-05 02:25:00,
2013-02-04 17:40:00,13.2,10.0,29.70,West,265,0.0,0.0,88,0.00,,,0.00,weatherlink.com 1.10,2013-02-05 02:40:00,
2013-02-04 18:10:00,12.3,9.0,29.70,West,265,0.0,0.0,88,0.00,,,0.00,weatherlink.com 1.10,2013-02-05 03:10:00,
2013-02-04 18:25:00,11.8,9.0,29.70,West,265,0.0,0.0,88,0.00,,,0.00,weatherlink.com 1.10,2013-02-05 03:25:00,
2013-02-04 18:40:00,11.1,8.0,29.69,West,265,0.0,0.0,87,0.00,,,0.00,weatherlink.com 1.10,2013-02-05 03:40:00,
2013-02-04 18:55:00,10.4,7.0,29.70,West,265,0.0,0.0,87,0.00,,,0.00,weatherlink.com 1.10,2013-02-05 03:55:00,
2013-02-04 19:10:00,9.4,6.0,29.70,West,265,0.0,0.0,87,0.00,,,0.00,weatherlink.com 1.10,2013-02-05 04:10:00,
2013-02-04 19:25:00,8.7,6.0,29.70,West,265,0.0,0.0,87,0.00,,,0.00,weatherlink.com 1.10,2013-02-05 04:25:00,
2013-02-04 19:40:00,7.7,5.0,29.70,West,265,0.0,0.0,88,0.00,,,0.00,weatherlink.com 1.10,2013-02-05 04:40:00,
2013-02-04 19:55:00,7.4,4.0,29.70,West,265,0.0,0.0,87,0.00,,,0.00,weatherlink.com 1.10,2013-02-05 04:55:00,
2013-02-04 20:10:00,6.9,4.0,29.70,West,265,0.0,0.0,87,0.00,,,0.00,weatherlink.com 1.10,2013-02-05 05:10:00,
2013-02-04 20:25:00,6.5,4.0,29.70,West,265,0.0,0.0,88,0.00,,,0.00,weatherlink.com 1.10,2013-02-05 05:25:00,
2013-02-04 20:40:00,7.1,5.0,29.70,West,265,0.0,0.0,89,0.00,,,0.00,weatherlink.com 1.10,2013-02-05 05:40:00,
2013-02-04 20:55:00,8.1,6.0,29.69,West,265,0.0,0.0,90,0.00,,,0.00,weatherlink.com 1.10,2013-02-05 05:55:00,
2013-02-04 21:10:00,8.8,7.0,29.69,West,265,0.0,0.0,90,0.00,,,0.00,weatherlink.com 1.10,2013-02-05 06:10:00,
2013-02-04 21:25:00,9.8,8.0,29.69,West,265,0.0,0.0,91,0.00,,,0.00,weatherlink.com 1.10,2013-02-05 06:25:00,
2013-02-04 21:40:00,10.3,8.0,29.69,West,265,0.0,0.0,90,0.00,,,0.00,weatherlink.com 1.10,2013-02-05 06:40:00,
2013-02-04 21:55:00,10.7,8.0,29.70,West,265,0.0,0.0,90,0.00,,,0.00,weatherlink.com 1.10,2013-02-05 06:55:00,
2013-02-04 22:10:00,11.3,9.0,29.69,West,265,0.0,0.0,90,0.00,,,0.00,weatherlink.com 1.10,2013-02-05 07:10:00,
2013-02-04 22:25:00,11.3,9.0,29.70,West,265,0.0,0.0,90,0.00,,,0.00,weatherlink.com 1.10,2013-02-05 07:25:00,
2013-02-04 22:40:00,11.5,9.0,29.70,West,265,0.0,0.0,90,0.00,,,0.00,weatherlink.com 1.10,2013-02-05 07:40:00,
2013-02-04 22:55:00,11.4,9.0,29.70,West,265,0.0,0.0,89,0.00,,,0.00,weatherlink.com 1.10,2013-02-05 07:55:00,
2013-02-04 23:10:00,10.4,8.0,29.70,West,265,0.0,0.0,88,0.00,,,0.00,weatherlink.com 1.10,2013-02-05 08:10:00,
2013-02-04 23:25:00,9.4,7.0,29.70,West,265,0.0,0.0,88,0.00,,,0.00,weatherlink.com 1.10,2013-02-05 08:25:00,
2013-02-04 23:40:00,9.1,6.0,29.70,West,265,0.0,0.0,88,0.00,,,0.00,weatherlink.com 1.10,2013-02-05 08:40:00,
2013-02-04 23:55:00,9.5,7.0,29.69,West,265,0.0,0.0,89,0.00,,,0.00,weatherlink.com 1.10,2013-02-05 08:55:00,